owner,sensor,date,latitude,longitude,vertical_datum,sea_water_temperature,qcFlag 
DISL,ioos:station:DISL:MHPA:1,2017-10-01T00:00:00Z,30.6671,-87.9365,-0.9,28.51,2 
DISL,ioos:station:DISL:MHPA:1,2017-10-01T00:30:00Z,30.6671,-87.9365,-0.9,28.55,2 
DISL,ioos:station:DISL:MHPA:1,2017-10-01T01:00:00Z,30.6671,-87.9365,-0.9,28.44,2 
DISL,ioos:station:DISL:MHPA:1,2017-10-01T01:30:00Z,30.6671,-87.9365,-0.9,28.37,2 
DISL,ioos:station:DISL:MHPA:1,2017-10-01T02:00:00Z,30.6671,-87.9365,-0.9,28.29,2 
DISL,ioos:station:DISL:MHPA:1,2017-10-01T02:30:00Z,30.6671,-87.9365,-0.9,28.23,2 
DISL,ioos:station:DISL:MHPA:1,2017-10-01T03:00:00Z,30.6671,-87.9365,-0.9,28.25,2 
DISL,ioos:station:DISL:MHPA:1,2017-10-01T03:30:00Z,30.6671,-87.9365,-0.9,28.17,2 
DISL,ioos:station:DISL:MHPA:1,2017-10-01T04:00:00Z,30.6671,-87.9365,-0.9,28.23,2 
DISL,ioos:station:DISL:MHPA:1,2017-10-01T04:30:00Z,30.6671,-87.9365,-0.9,28.2,2 
DISL,ioos:station:DISL:MHPA:1,2017-10-01T05:00:00Z,30.6671,-87.9365,-0.9,28.15,2 
DISL,ioos:station:DISL:MHPA:1,2017-10-01T05:30:00Z,30.6671,-87.9365,-0.9,28.12,2 
DISL,ioos:station:DISL:MHPA:1,2017-10-01T06:00:00Z,30.6671,-87.9365,-0.9,28.1,2 
DISL,ioos:station:DISL:MHPA:1,2017-10-01T06:30:00Z,30.6671,-87.9365,-0.9,28.08,2 
DISL,ioos:station:DISL:MHPA:1,2017-10-01T07:00:00Z,30.6671,-87.9365,-0.9,28.05,2 
DISL,ioos:station:DISL:MHPA:1,2017-10-01T07:30:00Z,30.6671,-87.9365,-0.9,28.05,2 
DISL,ioos:station:DISL:MHPA:1,2017-10-01T08:00:00Z,30.6671,-87.9365,-0.9,28.03,2 
DISL,ioos:station:DISL:MHPA:1,2017-10-01T08:30:00Z,30.6671,-87.9365,-0.9,27.98,2 
DISL,ioos:station:DISL:MHPA:1,2017-10-01T09:00:00Z,30.6671,-87.9365,-0.9,27.94,2 
DISL,ioos:station:DISL:MHPA:1,2017-10-01T09:30:00Z,30.6671,-87.9365,-0.9,27.96,2 
DISL,ioos:station:DISL:MHPA:1,2017-10-01T10:00:00Z,30.6671,-87.9365,-0.9,27.93,2 
DISL,ioos:station:DISL:MHPA:1,2017-10-01T10:30:00Z,30.6671,-87.9365,-0.9,27.91,2 
DISL,ioos:station:DISL:MHPA:1,2017-10-01T11:00:00Z,30.6671,-87.9365,-0.9,27.85,2 
DISL,ioos:station:DISL:MHPA:1,2017-10-01T11:30:00Z,30.6671,-87.9365,-0.9,27.71,2 
DISL,ioos:station:DISL:MHPA:1,2017-10-01T12:00:00Z,30.6671,-87.9365,-0.9,27.62,2 
DISL,ioos:station:DISL:MHPA:1,2017-10-01T12:30:00Z,30.6671,-87.9365,-0.9,27.53,2 
DISL,ioos:station:DISL:MHPA:1,2017-10-01T13:00:00Z,30.6671,-87.9365,-0.9,27.47,2 
DISL,ioos:station:DISL:MHPA:1,2017-10-01T13:30:00Z,30.6671,-87.9365,-0.9,27.55,2 
DISL,ioos:station:DISL:MHPA:1,2017-10-01T14:00:00Z,30.6671,-87.9365,-0.9,27.59,2 
DISL,ioos:station:DISL:MHPA:1,2017-10-01T14:30:00Z,30.6671,-87.9365,-0.9,27.43,2 
DISL,ioos:station:DISL:MHPA:1,2017-10-01T15:00:00Z,30.6671,-87.9365,-0.9,27.37,2 
DISL,ioos:station:DISL:MHPA:1,2017-10-01T15:30:00Z,30.6671,-87.9365,-0.9,27.38,2 
DISL,ioos:station:DISL:MHPA:1,2017-10-01T16:00:00Z,30.6671,-87.9365,-0.9,27.42,2 
DISL,ioos:station:DISL:MHPA:1,2017-10-01T16:30:00Z,30.6671,-87.9365,-0.9,27.46,2 
DISL,ioos:station:DISL:MHPA:1,2017-10-01T17:00:00Z,30.6671,-87.9365,-0.9,27.48,2 
DISL,ioos:station:DISL:MHPA:1,2017-10-01T17:30:00Z,30.6671,-87.9365,-0.9,27.54,2 
DISL,ioos:station:DISL:MHPA:1,2017-10-01T18:00:00Z,30.6671,-87.9365,-0.9,27.64,2 
DISL,ioos:station:DISL:MHPA:1,2017-10-01T18:30:00Z,30.6671,-87.9365,-0.9,27.71,2 
DISL,ioos:station:DISL:MHPA:1,2017-10-01T19:00:00Z,30.6671,-87.9365,-0.9,27.61,2 
DISL,ioos:station:DISL:MHPA:1,2017-10-01T19:30:00Z,30.6671,-87.9365,-0.9,27.6,2 
DISL,ioos:station:DISL:MHPA:1,2017-10-01T20:00:00Z,30.6671,-87.9365,-0.9,27.96,2 
DISL,ioos:station:DISL:MHPA:1,2017-10-01T20:30:00Z,30.6671,-87.9365,-0.9,27.86,2 
DISL,ioos:station:DISL:MHPA:1,2017-10-01T21:00:00Z,30.6671,-87.9365,-0.9,27.8,2 
DISL,ioos:station:DISL:MHPA:1,2017-10-01T21:30:00Z,30.6671,-87.9365,-0.9,27.87,2 
DISL,ioos:station:DISL:MHPA:1,2017-10-01T22:00:00Z,30.6671,-87.9365,-0.9,27.84,2 
DISL,ioos:station:DISL:MHPA:1,2017-10-01T22:30:00Z,30.6671,-87.9365,-0.9,27.8,2 
DISL,ioos:station:DISL:MHPA:1,2017-10-01T23:00:00Z,30.6671,-87.9365,-0.9,27.82,2 
DISL,ioos:station:DISL:MHPA:1,2017-10-01T23:30:00Z,30.6671,-87.9365,-0.9,27.7,2 
DISL,ioos:station:DISL:MHPA:1,2017-10-02T00:00:00Z,30.6671,-87.9365,-0.9,27.78,2 
DISL,ioos:station:DISL:MHPA:1,2017-10-02T00:30:00Z,30.6671,-87.9365,-0.9,27.74,2 
DISL,ioos:station:DISL:MHPA:1,2017-10-02T01:00:00Z,30.6671,-87.9365,-0.9,27.74,2 
DISL,ioos:station:DISL:MHPA:1,2017-10-02T01:30:00Z,30.6671,-87.9365,-0.9,27.46,2 
DISL,ioos:station:DISL:MHPA:1,2017-10-02T02:00:00Z,30.6671,-87.9365,-0.9,27.32,2 
DISL,ioos:station:DISL:MHPA:1,2017-10-02T02:30:00Z,30.6671,-87.9365,-0.9,27.15,2 
DISL,ioos:station:DISL:MHPA:1,2017-10-02T03:00:00Z,30.6671,-87.9365,-0.9,27.19,2 
DISL,ioos:station:DISL:MHPA:1,2017-10-02T03:30:00Z,30.6671,-87.9365,-0.9,27.02,2 
DISL,ioos:station:DISL:MHPA:1,2017-10-02T04:00:00Z,30.6671,-87.9365,-0.9,26.93,2 
DISL,ioos:station:DISL:MHPA:1,2017-10-02T04:30:00Z,30.6671,-87.9365,-0.9,26.81,2 
DISL,ioos:station:DISL:MHPA:1,2017-10-02T05:00:00Z,30.6671,-87.9365,-0.9,26.72,2 
DISL,ioos:station:DISL:MHPA:1,2017-10-02T05:30:00Z,30.6671,-87.9365,-0.9,26.64,2 
DISL,ioos:station:DISL:MHPA:1,2017-10-02T06:00:00Z,30.6671,-87.9365,-0.9,26.58,2 
DISL,ioos:station:DISL:MHPA:1,2017-10-02T06:30:00Z,30.6671,-87.9365,-0.9,26.63,2 
DISL,ioos:station:DISL:MHPA:1,2017-10-02T07:00:00Z,30.6671,-87.9365,-0.9,26.47,2 
DISL,ioos:station:DISL:MHPA:1,2017-10-02T07:30:00Z,30.6671,-87.9365,-0.9,25.27,2 
DISL,ioos:station:DISL:MHPA:1,2017-10-02T08:00:00Z,30.6671,-87.9365,-0.9,24.94,2 
DISL,ioos:station:DISL:MHPA:1,2017-10-02T08:30:00Z,30.6671,-87.9365,-0.9,26.08,2 
DISL,ioos:station:DISL:MHPA:1,2017-10-02T09:00:00Z,30.6671,-87.9365,-0.9,26.41,2 
DISL,ioos:station:DISL:MHPA:1,2017-10-02T09:30:00Z,30.6671,-87.9365,-0.9,24.44,2 
DISL,ioos:station:DISL:MHPA:1,2017-10-02T10:00:00Z,30.6671,-87.9365,-0.9,24.68,2 
DISL,ioos:station:DISL:MHPA:1,2017-10-02T10:30:00Z,30.6671,-87.9365,-0.9,25.58,2 
DISL,ioos:station:DISL:MHPA:1,2017-10-02T11:00:00Z,30.6671,-87.9365,-0.9,25.48,2 
DISL,ioos:station:DISL:MHPA:1,2017-10-02T11:30:00Z,30.6671,-87.9365,-0.9,24.95,2 
DISL,ioos:station:DISL:MHPA:1,2017-10-02T12:00:00Z,30.6671,-87.9365,-0.9,25.5,2 
DISL,ioos:station:DISL:MHPA:1,2017-10-02T12:30:00Z,30.6671,-87.9365,-0.9,24.94,2 
DISL,ioos:station:DISL:MHPA:1,2017-10-02T13:00:00Z,30.6671,-87.9365,-0.9,24.78,2 
DISL,ioos:station:DISL:MHPA:1,2017-10-02T13:30:00Z,30.6671,-87.9365,-0.9,24.8,2 
DISL,ioos:station:DISL:MHPA:1,2017-10-02T14:00:00Z,30.6671,-87.9365,-0.9,24.78,2 
DISL,ioos:station:DISL:MHPA:1,2017-10-02T14:30:00Z,30.6671,-87.9365,-0.9,24.61,2 
DISL,ioos:station:DISL:MHPA:1,2017-10-02T15:00:00Z,30.6671,-87.9365,-0.9,24.5,2 
DISL,ioos:station:DISL:MHPA:1,2017-10-02T15:30:00Z,30.6671,-87.9365,-0.9,24.79,2 
DISL,ioos:station:DISL:MHPA:1,2017-10-02T16:00:00Z,30.6671,-87.9365,-0.9,25.01,2 
DISL,ioos:station:DISL:MHPA:1,2017-10-02T16:30:00Z,30.6671,-87.9365,-0.9,25.21,2 
DISL,ioos:station:DISL:MHPA:1,2017-10-02T17:00:00Z,30.6671,-87.9365,-0.9,25.11,2 
DISL,ioos:station:DISL:MHPA:1,2017-10-02T17:30:00Z,30.6671,-87.9365,-0.9,25.29,2 
DISL,ioos:station:DISL:MHPA:1,2017-10-02T18:00:00Z,30.6671,-87.9365,-0.9,25.43,2 
DISL,ioos:station:DISL:MHPA:1,2017-10-02T18:30:00Z,30.6671,-87.9365,-0.9,25.52,2 
DISL,ioos:station:DISL:MHPA:1,2017-10-02T19:00:00Z,30.6671,-87.9365,-0.9,25.58,2 
DISL,ioos:station:DISL:MHPA:1,2017-10-02T19:30:00Z,30.6671,-87.9365,-0.9,25.58,2 
DISL,ioos:station:DISL:MHPA:1,2017-10-02T20:00:00Z,30.6671,-87.9365,-0.9,25.59,2 
DISL,ioos:station:DISL:MHPA:1,2017-10-02T20:30:00Z,30.6671,-87.9365,-0.9,25.58,2 
DISL,ioos:station:DISL:MHPA:1,2017-10-02T21:00:00Z,30.6671,-87.9365,-0.9,25.42,2 
DISL,ioos:station:DISL:MHPA:1,2017-10-02T21:30:00Z,30.6671,-87.9365,-0.9,25.43,2 
DISL,ioos:station:DISL:MHPA:1,2017-10-02T22:00:00Z,30.6671,-87.9365,-0.9,25.42,2 
DISL,ioos:station:DISL:MHPA:1,2017-10-02T22:30:00Z,30.6671,-87.9365,-0.9,25.37,2 
DISL,ioos:station:DISL:MHPA:1,2017-10-02T23:00:00Z,30.6671,-87.9365,-0.9,25.29,2 
DISL,ioos:station:DISL:MHPA:1,2017-10-02T23:30:00Z,30.6671,-87.9365,-0.9,25.23,2 
DISL,ioos:station:DISL:MHPA:1,2017-10-03T00:00:00Z,30.6671,-87.9365,-0.9,25.26,2 
DISL,ioos:station:DISL:MHPA:1,2017-10-03T00:30:00Z,30.6671,-87.9365,-0.9,25.3,2 
DISL,ioos:station:DISL:MHPA:1,2017-10-03T01:00:00Z,30.6671,-87.9365,-0.9,25.24,2 
DISL,ioos:station:DISL:MHPA:1,2017-10-03T01:30:00Z,30.6671,-87.9365,-0.9,25.25,2 
DISL,ioos:station:DISL:MHPA:1,2017-10-03T02:00:00Z,30.6671,-87.9365,-0.9,25.25,2 
DISL,ioos:station:DISL:MHPA:1,2017-10-03T02:30:00Z,30.6671,-87.9365,-0.9,25.2,2 
DISL,ioos:station:DISL:MHPA:1,2017-10-03T03:00:00Z,30.6671,-87.9365,-0.9,25.22,2 
DISL,ioos:station:DISL:MHPA:1,2017-10-03T03:30:00Z,30.6671,-87.9365,-0.9,25.16,2 
DISL,ioos:station:DISL:MHPA:1,2017-10-03T04:00:00Z,30.6671,-87.9365,-0.9,25.11,2 
DISL,ioos:station:DISL:MHPA:1,2017-10-03T04:30:00Z,30.6671,-87.9365,-0.9,25.07,2 
DISL,ioos:station:DISL:MHPA:1,2017-10-03T05:00:00Z,30.6671,-87.9365,-0.9,25.03,2 
DISL,ioos:station:DISL:MHPA:1,2017-10-03T05:30:00Z,30.6671,-87.9365,-0.9,24.94,2 
DISL,ioos:station:DISL:MHPA:1,2017-10-03T06:00:00Z,30.6671,-87.9365,-0.9,24.85,2 
DISL,ioos:station:DISL:MHPA:1,2017-10-03T06:30:00Z,30.6671,-87.9365,-0.9,24.84,2 
DISL,ioos:station:DISL:MHPA:1,2017-10-03T07:00:00Z,30.6671,-87.9365,-0.9,25.02,2 
DISL,ioos:station:DISL:MHPA:1,2017-10-03T07:30:00Z,30.6671,-87.9365,-0.9,24.94,2 
DISL,ioos:station:DISL:MHPA:1,2017-10-03T08:00:00Z,30.6671,-87.9365,-0.9,24.97,2 
DISL,ioos:station:DISL:MHPA:1,2017-10-03T08:30:00Z,30.6671,-87.9365,-0.9,24.9,2 
DISL,ioos:station:DISL:MHPA:1,2017-10-03T09:00:00Z,30.6671,-87.9365,-0.9,25.2,2 
DISL,ioos:station:DISL:MHPA:1,2017-10-03T09:30:00Z,30.6671,-87.9365,-0.9,24.89,2 
DISL,ioos:station:DISL:MHPA:1,2017-10-03T10:00:00Z,30.6671,-87.9365,-0.9,24.78,2 
DISL,ioos:station:DISL:MHPA:1,2017-10-03T10:30:00Z,30.6671,-87.9365,-0.9,24.77,2 
DISL,ioos:station:DISL:MHPA:1,2017-10-03T11:00:00Z,30.6671,-87.9365,-0.9,24.83,2 
DISL,ioos:station:DISL:MHPA:1,2017-10-03T11:30:00Z,30.6671,-87.9365,-0.9,24.76,2 
DISL,ioos:station:DISL:MHPA:1,2017-10-03T12:00:00Z,30.6671,-87.9365,-0.9,24.71,2 
DISL,ioos:station:DISL:MHPA:1,2017-10-03T12:30:00Z,30.6671,-87.9365,-0.9,24.75,2 
DISL,ioos:station:DISL:MHPA:1,2017-10-03T13:00:00Z,30.6671,-87.9365,-0.9,24.83,2 
DISL,ioos:station:DISL:MHPA:1,2017-10-03T13:30:00Z,30.6671,-87.9365,-0.9,24.85,2 
DISL,ioos:station:DISL:MHPA:1,2017-10-03T14:00:00Z,30.6671,-87.9365,-0.9,24.49,2 
DISL,ioos:station:DISL:MHPA:1,2017-10-03T14:30:00Z,30.6671,-87.9365,-0.9,24.24,2 
DISL,ioos:station:DISL:MHPA:1,2017-10-03T15:00:00Z,30.6671,-87.9365,-0.9,24.15,2 
DISL,ioos:station:DISL:MHPA:1,2017-10-03T15:30:00Z,30.6671,-87.9365,-0.9,24.03,2 
DISL,ioos:station:DISL:MHPA:1,2017-10-03T16:00:00Z,30.6671,-87.9365,-0.9,24.28,2 
DISL,ioos:station:DISL:MHPA:1,2017-10-03T16:30:00Z,30.6671,-87.9365,-0.9,24.43,2 
DISL,ioos:station:DISL:MHPA:1,2017-10-03T17:00:00Z,30.6671,-87.9365,-0.9,24.66,2 
DISL,ioos:station:DISL:MHPA:1,2017-10-03T17:30:00Z,30.6671,-87.9365,-0.9,24.77,2 
DISL,ioos:station:DISL:MHPA:1,2017-10-03T18:00:00Z,30.6671,-87.9365,-0.9,24.9,2 
DISL,ioos:station:DISL:MHPA:1,2017-10-03T18:30:00Z,30.6671,-87.9365,-0.9,24.97,2 
DISL,ioos:station:DISL:MHPA:1,2017-10-03T19:00:00Z,30.6671,-87.9365,-0.9,25.09,2 
DISL,ioos:station:DISL:MHPA:1,2017-10-03T19:30:00Z,30.6671,-87.9365,-0.9,25.21,2 
DISL,ioos:station:DISL:MHPA:1,2017-10-03T20:00:00Z,30.6671,-87.9365,-0.9,25.31,2 
DISL,ioos:station:DISL:MHPA:1,2017-10-03T20:30:00Z,30.6671,-87.9365,-0.9,25.51,2 
DISL,ioos:station:DISL:MHPA:1,2017-10-03T21:00:00Z,30.6671,-87.9365,-0.9,25.98,2 
DISL,ioos:station:DISL:MHPA:1,2017-10-03T21:30:00Z,30.6671,-87.9365,-0.9,26.28,2 
DISL,ioos:station:DISL:MHPA:1,2017-10-03T22:30:00Z,30.6671,-87.9365,-0.9,26.79,2 
DISL,ioos:station:DISL:MHPA:1,2017-10-03T23:30:00Z,30.6671,-87.9365,-0.9,26.1,2 
DISL,ioos:station:DISL:MHPA:1,2017-10-04T00:30:00Z,30.6671,-87.9365,-0.9,25.91,2 
DISL,ioos:station:DISL:MHPA:1,2017-10-04T01:30:00Z,30.6671,-87.9365,-0.9,25.76,2 
DISL,ioos:station:DISL:MHPA:1,2017-10-04T02:30:00Z,30.6671,-87.9365,-0.9,25.86,2 
DISL,ioos:station:DISL:MHPA:1,2017-10-04T03:30:00Z,30.6671,-87.9365,-0.9,25.84,2 
DISL,ioos:station:DISL:MHPA:1,2017-10-04T04:30:00Z,30.6671,-87.9365,-0.9,25.49,2 
DISL,ioos:station:DISL:MHPA:1,2017-10-04T05:30:00Z,30.6671,-87.9365,-0.9,25.44,2 
DISL,ioos:station:DISL:MHPA:1,2017-10-04T06:30:00Z,30.6671,-87.9365,-0.9,25.28,2 
DISL,ioos:station:DISL:MHPA:1,2017-10-04T07:30:00Z,30.6671,-87.9365,-0.9,25.27,2 
DISL,ioos:station:DISL:MHPA:1,2017-10-04T08:30:00Z,30.6671,-87.9365,-0.9,25.23,2 
DISL,ioos:station:DISL:MHPA:1,2017-10-04T09:30:00Z,30.6671,-87.9365,-0.9,25.22,2 
DISL,ioos:station:DISL:MHPA:1,2017-10-04T11:00:00Z,30.6671,-87.9365,-0.9,25.1,2 
DISL,ioos:station:DISL:MHPA:1,2017-10-04T12:30:00Z,30.6671,-87.9365,-0.9,25.09,2 
DISL,ioos:station:DISL:MHPA:1,2017-10-04T13:30:00Z,30.6671,-87.9365,-0.9,25.02,2 
DISL,ioos:station:DISL:MHPA:1,2017-10-04T14:30:00Z,30.6671,-87.9365,-0.9,24.23,2 
DISL,ioos:station:DISL:MHPA:1,2017-10-04T15:30:00Z,30.6671,-87.9365,-0.9,24.02,2 
DISL,ioos:station:DISL:MHPA:1,2017-10-04T16:30:00Z,30.6671,-87.9365,-0.9,24.34,2 
DISL,ioos:station:DISL:MHPA:1,2017-10-04T17:30:00Z,30.6671,-87.9365,-0.9,24.6,2 
DISL,ioos:station:DISL:MHPA:1,2017-10-04T18:30:00Z,30.6671,-87.9365,-0.9,24.87,2 
DISL,ioos:station:DISL:MHPA:1,2017-10-04T19:30:00Z,30.6671,-87.9365,-0.9,25.4,2 
DISL,ioos:station:DISL:MHPA:1,2017-10-04T20:30:00Z,30.6671,-87.9365,-0.9,25.25,2 
DISL,ioos:station:DISL:MHPA:1,2017-10-04T21:30:00Z,30.6671,-87.9365,-0.9,25.41,2 
DISL,ioos:station:DISL:MHPA:1,2017-10-04T22:30:00Z,30.6671,-87.9365,-0.9,25.92,2 
DISL,ioos:station:DISL:MHPA:1,2017-10-04T23:30:00Z,30.6671,-87.9365,-0.9,25.78,2 
DISL,ioos:station:DISL:MHPA:1,2017-10-05T00:30:00Z,30.6671,-87.9365,-0.9,25.84,2 
DISL,ioos:station:DISL:MHPA:1,2017-10-05T01:30:00Z,30.6671,-87.9365,-0.9,25.8,2 
DISL,ioos:station:DISL:MHPA:1,2017-10-05T02:30:00Z,30.6671,-87.9365,-0.9,25.57,2 
DISL,ioos:station:DISL:MHPA:1,2017-10-05T03:30:00Z,30.6671,-87.9365,-0.9,25.52,2 
DISL,ioos:station:DISL:MHPA:1,2017-10-05T04:30:00Z,30.6671,-87.9365,-0.9,25.41,2 
DISL,ioos:station:DISL:MHPA:1,2017-10-05T05:30:00Z,30.6671,-87.9365,-0.9,25.22,2 
DISL,ioos:station:DISL:MHPA:1,2017-10-05T06:30:00Z,30.6671,-87.9365,-0.9,25.13,2 
DISL,ioos:station:DISL:MHPA:1,2017-10-05T07:30:00Z,30.6671,-87.9365,-0.9,25.1,2 
DISL,ioos:station:DISL:MHPA:1,2017-10-05T08:30:00Z,30.6671,-87.9365,-0.9,24.94,2 
DISL,ioos:station:DISL:MHPA:1,2017-10-05T09:30:00Z,30.6671,-87.9365,-0.9,24.96,2 
DISL,ioos:station:DISL:MHPA:1,2017-10-05T10:30:00Z,30.6671,-87.9365,-0.9,24.88,2 
DISL,ioos:station:DISL:MHPA:1,2017-10-05T11:30:00Z,30.6671,-87.9365,-0.9,24.84,2 
DISL,ioos:station:DISL:MHPA:1,2017-10-05T12:30:00Z,30.6671,-87.9365,-0.9,24.81,2 
DISL,ioos:station:DISL:MHPA:1,2017-10-05T13:30:00Z,30.6671,-87.9365,-0.9,24.69,2 
DISL,ioos:station:DISL:MHPA:1,2017-10-05T14:30:00Z,30.6671,-87.9365,-0.9,24.66,2 
DISL,ioos:station:DISL:MHPA:1,2017-10-05T15:30:00Z,30.6671,-87.9365,-0.9,24.62,2 
DISL,ioos:station:DISL:MHPA:1,2017-10-05T16:30:00Z,30.6671,-87.9365,-0.9,24.49,2 
DISL,ioos:station:DISL:MHPA:1,2017-10-05T17:30:00Z,30.6671,-87.9365,-0.9,24.61,2 
DISL,ioos:station:DISL:MHPA:1,2017-10-05T18:30:00Z,30.6671,-87.9365,-0.9,24.92,2 
DISL,ioos:station:DISL:MHPA:1,2017-10-05T19:30:00Z,30.6671,-87.9365,-0.9,25.08,2 
DISL,ioos:station:DISL:MHPA:1,2017-10-05T20:30:00Z,30.6671,-87.9365,-0.9,25.57,2 
DISL,ioos:station:DISL:MHPA:1,2017-10-05T21:30:00Z,30.6671,-87.9365,-0.9,25.59,2 
DISL,ioos:station:DISL:MHPA:1,2017-10-05T22:30:00Z,30.6671,-87.9365,-0.9,25.45,2 
DISL,ioos:station:DISL:MHPA:1,2017-10-05T23:30:00Z,30.6671,-87.9365,-0.9,25.67,2 
DISL,ioos:station:DISL:MHPA:1,2017-10-06T00:30:00Z,30.6671,-87.9365,-0.9,25.75,2 
DISL,ioos:station:DISL:MHPA:1,2017-10-06T01:30:00Z,30.6671,-87.9365,-0.9,25.58,2 
DISL,ioos:station:DISL:MHPA:1,2017-10-06T02:30:00Z,30.6671,-87.9365,-0.9,25.17,2 
DISL,ioos:station:DISL:MHPA:1,2017-10-06T03:30:00Z,30.6671,-87.9365,-0.9,25.93,2 
DISL,ioos:station:DISL:MHPA:1,2017-10-06T04:30:00Z,30.6671,-87.9365,-0.9,25.36,2 
DISL,ioos:station:DISL:MHPA:1,2017-10-06T05:30:00Z,30.6671,-87.9365,-0.9,25.23,2 
DISL,ioos:station:DISL:MHPA:1,2017-10-06T06:30:00Z,30.6671,-87.9365,-0.9,25.2,2 
DISL,ioos:station:DISL:MHPA:1,2017-10-06T07:30:00Z,30.6671,-87.9365,-0.9,25.12,2 
DISL,ioos:station:DISL:MHPA:1,2017-10-06T08:30:00Z,30.6671,-87.9365,-0.9,25.04,2 
DISL,ioos:station:DISL:MHPA:1,2017-10-06T09:30:00Z,30.6671,-87.9365,-0.9,24.97,2 
DISL,ioos:station:DISL:MHPA:1,2017-10-06T10:30:00Z,30.6671,-87.9365,-0.9,24.9,2 
DISL,ioos:station:DISL:MHPA:1,2017-10-06T11:30:00Z,30.6671,-87.9365,-0.9,24.83,2 
DISL,ioos:station:DISL:MHPA:1,2017-10-06T12:30:00Z,30.6671,-87.9365,-0.9,24.78,2 
DISL,ioos:station:DISL:MHPA:1,2017-10-06T13:30:00Z,30.6671,-87.9365,-0.9,24.79,2 
DISL,ioos:station:DISL:MHPA:1,2017-10-06T14:30:00Z,30.6671,-87.9365,-0.9,24.91,2 
DISL,ioos:station:DISL:MHPA:1,2017-10-06T15:30:00Z,30.6671,-87.9365,-0.9,24.91,2 
DISL,ioos:station:DISL:MHPA:1,2017-10-06T16:30:00Z,30.6671,-87.9365,-0.9,24.96,2 
DISL,ioos:station:DISL:MHPA:1,2017-10-06T17:30:00Z,30.6671,-87.9365,-0.9,25.29,2 
DISL,ioos:station:DISL:MHPA:1,2017-10-06T18:30:00Z,30.6671,-87.9365,-0.9,25.69,2 
DISL,ioos:station:DISL:MHPA:1,2017-10-06T19:30:00Z,30.6671,-87.9365,-0.9,25.76,2 
DISL,ioos:station:DISL:MHPA:1,2017-10-06T20:30:00Z,30.6671,-87.9365,-0.9,26.12,2 
DISL,ioos:station:DISL:MHPA:1,2017-10-06T21:30:00Z,30.6671,-87.9365,-0.9,26.19,2 
DISL,ioos:station:DISL:MHPA:1,2017-10-06T22:30:00Z,30.6671,-87.9365,-0.9,26.47,2 
DISL,ioos:station:DISL:MHPA:1,2017-10-06T23:30:00Z,30.6671,-87.9365,-0.9,26.45,2 
DISL,ioos:station:DISL:MHPA:1,2017-10-07T00:30:00Z,30.6671,-87.9365,-0.9,26.27,2 
DISL,ioos:station:DISL:MHPA:1,2017-10-07T01:30:00Z,30.6671,-87.9365,-0.9,26.36,2 
DISL,ioos:station:DISL:MHPA:1,2017-10-07T02:30:00Z,30.6671,-87.9365,-0.9,26.25,2 
DISL,ioos:station:DISL:MHPA:1,2017-10-07T03:30:00Z,30.6671,-87.9365,-0.9,26.23,2 
DISL,ioos:station:DISL:MHPA:1,2017-10-07T04:30:00Z,30.6671,-87.9365,-0.9,26.06,2 
DISL,ioos:station:DISL:MHPA:1,2017-10-07T05:30:00Z,30.6671,-87.9365,-0.9,26.04,2 
DISL,ioos:station:DISL:MHPA:1,2017-10-07T06:30:00Z,30.6671,-87.9365,-0.9,25.91,2 
DISL,ioos:station:DISL:MHPA:1,2017-10-07T07:30:00Z,30.6671,-87.9365,-0.9,25.82,2 
DISL,ioos:station:DISL:MHPA:1,2017-10-07T08:30:00Z,30.6671,-87.9365,-0.9,25.74,2 
DISL,ioos:station:DISL:MHPA:1,2017-10-07T09:30:00Z,30.6671,-87.9365,-0.9,25.72,2 
DISL,ioos:station:DISL:MHPA:1,2017-10-07T10:30:00Z,30.6671,-87.9365,-0.9,25.6,2 
DISL,ioos:station:DISL:MHPA:1,2017-10-07T11:30:00Z,30.6671,-87.9365,-0.9,25.62,2 
DISL,ioos:station:DISL:MHPA:1,2017-10-07T12:30:00Z,30.6671,-87.9365,-0.9,25.63,2 
DISL,ioos:station:DISL:MHPA:1,2017-10-07T13:30:00Z,30.6671,-87.9365,-0.9,25.57,2 
DISL,ioos:station:DISL:MHPA:1,2017-10-07T14:30:00Z,30.6671,-87.9365,-0.9,25.62,2 
DISL,ioos:station:DISL:MHPA:1,2017-10-07T15:30:00Z,30.6671,-87.9365,-0.9,25.57,2 
DISL,ioos:station:DISL:MHPA:1,2017-10-07T16:30:00Z,30.6671,-87.9365,-0.9,25.64,2 
DISL,ioos:station:DISL:MHPA:1,2017-10-07T17:30:00Z,30.6671,-87.9365,-0.9,25.91,2 
DISL,ioos:station:DISL:MHPA:1,2017-10-07T18:30:00Z,30.6671,-87.9365,-0.9,26.19,2 
DISL,ioos:station:DISL:MHPA:1,2017-10-07T19:30:00Z,30.6671,-87.9365,-0.9,26.46,2 
DISL,ioos:station:DISL:MHPA:1,2017-10-07T20:30:00Z,30.6671,-87.9365,-0.9,26.42,2 
DISL,ioos:station:DISL:MHPA:1,2017-10-07T21:30:00Z,30.6671,-87.9365,-0.9,26.38,2 
DISL,ioos:station:DISL:MHPA:1,2017-10-07T22:30:00Z,30.6671,-87.9365,-0.9,26.28,2 
DISL,ioos:station:DISL:MHPA:1,2017-10-07T23:30:00Z,30.6671,-87.9365,-0.9,26.26,2 
DISL,ioos:station:DISL:MHPA:1,2017-10-08T00:30:00Z,30.6671,-87.9365,-0.9,26.14,2 
DISL,ioos:station:DISL:MHPA:1,2017-10-08T01:30:00Z,30.6671,-87.9365,-0.9,26.1,2 
DISL,ioos:station:DISL:MHPA:1,2017-10-08T02:30:00Z,30.6671,-87.9365,-0.9,26.04,2 
DISL,ioos:station:DISL:MHPA:1,2017-10-08T03:30:00Z,30.6671,-87.9365,-0.9,25.99,2 
DISL,ioos:station:DISL:MHPA:1,2017-10-08T04:30:00Z,30.6671,-87.9365,-0.9,25.92,2 
DISL,ioos:station:DISL:MHPA:1,2017-10-08T05:30:00Z,30.6671,-87.9365,-0.9,25.9,2 
DISL,ioos:station:DISL:MHPA:1,2017-10-08T06:30:00Z,30.6671,-87.9365,-0.9,25.73,2 
DISL,ioos:station:DISL:MHPA:1,2017-10-08T07:30:00Z,30.6671,-87.9365,-0.9,25.4,2 
DISL,ioos:station:DISL:MHPA:1,2017-10-08T08:30:00Z,30.6671,-87.9365,-0.9,25.16,2 
DISL,ioos:station:DISL:MHPA:1,2017-10-08T09:30:00Z,30.6671,-87.9365,-0.9,25.13,2 
DISL,ioos:station:DISL:MHPA:1,2017-10-08T10:30:00Z,30.6671,-87.9365,-0.9,25.02,2 
DISL,ioos:station:DISL:MHPA:1,2017-10-08T11:30:00Z,30.6671,-87.9365,-0.9,25.05,2 
DISL,ioos:station:DISL:MHPA:1,2017-10-08T12:30:00Z,30.6671,-87.9365,-0.9,24.99,2 
DISL,ioos:station:DISL:MHPA:1,2017-10-08T13:30:00Z,30.6671,-87.9365,-0.9,24.99,2 
DISL,ioos:station:DISL:MHPA:1,2017-10-08T14:30:00Z,30.6671,-87.9365,-0.9,25.03,2 
DISL,ioos:station:DISL:MHPA:1,2017-10-08T15:30:00Z,30.6671,-87.9365,-0.9,25.01,2 
DISL,ioos:station:DISL:MHPA:1,2017-10-08T16:30:00Z,30.6671,-87.9365,-0.9,25.03,2 
DISL,ioos:station:DISL:MHPA:1,2017-10-08T17:30:00Z,30.6671,-87.9365,-0.9,25.15,2 
DISL,ioos:station:DISL:MHPA:1,2017-10-08T18:30:00Z,30.6671,-87.9365,-0.9,25.42,2 
DISL,ioos:station:DISL:MHPA:1,2017-10-08T19:30:00Z,30.6671,-87.9365,-0.9,26.06,2 
DISL,ioos:station:DISL:MHPA:1,2017-10-08T20:30:00Z,30.6671,-87.9365,-0.9,26.26,2 
DISL,ioos:station:DISL:MHPA:1,2017-10-08T21:30:00Z,30.6671,-87.9365,-0.9,26.51,2 
DISL,ioos:station:DISL:MHPA:1,2017-10-08T22:30:00Z,30.6671,-87.9365,-0.9,26.49,2 
DISL,ioos:station:DISL:MHPA:1,2017-10-08T23:30:00Z,30.6671,-87.9365,-0.9,26.53,2 
DISL,ioos:station:DISL:MHPA:1,2017-10-09T00:30:00Z,30.6671,-87.9365,-0.9,26.42,2 
DISL,ioos:station:DISL:MHPA:1,2017-10-09T01:30:00Z,30.6671,-87.9365,-0.9,26.05,2 
DISL,ioos:station:DISL:MHPA:1,2017-10-09T02:30:00Z,30.6671,-87.9365,-0.9,26.17,2 
DISL,ioos:station:DISL:MHPA:1,2017-10-09T03:30:00Z,30.6671,-87.9365,-0.9,26.2,2 
DISL,ioos:station:DISL:MHPA:1,2017-10-09T04:30:00Z,30.6671,-87.9365,-0.9,26.24,2 
DISL,ioos:station:DISL:MHPA:1,2017-10-09T05:30:00Z,30.6671,-87.9365,-0.9,26.23,2 
DISL,ioos:station:DISL:MHPA:1,2017-10-09T06:30:00Z,30.6671,-87.9365,-0.9,26.13,2 
DISL,ioos:station:DISL:MHPA:1,2017-10-09T07:30:00Z,30.6671,-87.9365,-0.9,26.19,2 
DISL,ioos:station:DISL:MHPA:1,2017-10-09T08:30:00Z,30.6671,-87.9365,-0.9,26.2,2 
DISL,ioos:station:DISL:MHPA:1,2017-10-09T09:30:00Z,30.6671,-87.9365,-0.9,26.12,2 
DISL,ioos:station:DISL:MHPA:1,2017-10-09T10:30:00Z,30.6671,-87.9365,-0.9,26.11,2 
DISL,ioos:station:DISL:MHPA:1,2017-10-09T11:30:00Z,30.6671,-87.9365,-0.9,26.12,2 
DISL,ioos:station:DISL:MHPA:1,2017-10-09T12:30:00Z,30.6671,-87.9365,-0.9,25.97,2 
DISL,ioos:station:DISL:MHPA:1,2017-10-09T13:30:00Z,30.6671,-87.9365,-0.9,25.89,2 
DISL,ioos:station:DISL:MHPA:1,2017-10-09T14:30:00Z,30.6671,-87.9365,-0.9,25.93,2 
DISL,ioos:station:DISL:MHPA:1,2017-10-09T15:30:00Z,30.6671,-87.9365,-0.9,25.93,2 
DISL,ioos:station:DISL:MHPA:1,2017-10-09T16:30:00Z,30.6671,-87.9365,-0.9,26.1,2 
DISL,ioos:station:DISL:MHPA:1,2017-10-09T17:00:00Z,30.6671,-87.9365,-0.9,26.15,2 
DISL,ioos:station:DISL:MHPA:1,2017-10-09T18:00:00Z,30.6671,-87.9365,-0.9,26.48,2 
DISL,ioos:station:DISL:MHPA:1,2017-10-09T19:30:00Z,30.6671,-87.9365,-0.9,26.83,2 
DISL,ioos:station:DISL:MHPA:1,2017-10-09T20:30:00Z,30.6671,-87.9365,-0.9,26.84,2 
DISL,ioos:station:DISL:MHPA:1,2017-10-09T21:30:00Z,30.6671,-87.9365,-0.9,26.82,2 
DISL,ioos:station:DISL:MHPA:1,2017-10-09T22:30:00Z,30.6671,-87.9365,-0.9,26.76,2 
DISL,ioos:station:DISL:MHPA:1,2017-10-09T23:30:00Z,30.6671,-87.9365,-0.9,26.57,2 
DISL,ioos:station:DISL:MHPA:1,2017-10-10T00:30:00Z,30.6671,-87.9365,-0.9,26.61,2 
DISL,ioos:station:DISL:MHPA:1,2017-10-10T01:30:00Z,30.6671,-87.9365,-0.9,26.57,2 
DISL,ioos:station:DISL:MHPA:1,2017-10-10T02:30:00Z,30.6671,-87.9365,-0.9,26.41,2 
DISL,ioos:station:DISL:MHPA:1,2017-10-10T03:30:00Z,30.6671,-87.9365,-0.9,26.49,2 
DISL,ioos:station:DISL:MHPA:1,2017-10-10T04:30:00Z,30.6671,-87.9365,-0.9,26.5,2 
DISL,ioos:station:DISL:MHPA:1,2017-10-10T05:30:00Z,30.6671,-87.9365,-0.9,26.51,2 
DISL,ioos:station:DISL:MHPA:1,2017-10-10T06:30:00Z,30.6671,-87.9365,-0.9,26.48,2 